Location: Aciu?a
(46.2833°N, 22.4500°E)
Time: 06:11:36
(UTC+00:00)

CZ-4B R/B - Pass Details

Date: 25 October 2021
Orbit: 808 x 882 km, 99.1° (Epoch: 04 December)

Event Time Altitude Azimuth Distance (km) Brightness Sun altitude
Rises 16:30:43 0° 164° (SSE) 3,465 6.3 -11.7°
Reaches altitude 10° 16:33:06 10° 165° (SSE) 2,533 5.6 -12.1°
Maximum altitude 16:38:46 86° 253° (WSW) 891 3.3 -13.1°
Drops below altitude 10° 16:44:28 10° 344° (NNW) 2,544 5.8 -14.1°
Sets 16:46:51 0° 345° (NNW) 3,481 6.6 -14.5°
